FREGAT DEB, 46095

Orbit data source: Space-Track

FREGAT DEB, 46095 is space debris in LEO originally from a launch on Mon, 18 Jul 2011 UTC launched from the Tyuratam Missile And Space Complex (TTMTR). Debris objects in space refer to the collection of defunct objects orbiting the Earth. Examples of debris include non-operational satellites, rocket bodies, and fragments generated from explosions, collisions, or faulty payload assembly.

Loading next visibility...
Identifier
46095, 2011-037JE
Orbit
LEO
Country
Flag of CISCIS
Related business
Manufacturer
Lavochkin
Mission
Spacecraft
Bus & Motor
Unknown
Mass
Unknown
Launch date (UTC)
2011-07-18 (15 years ago)
Launch vehicle
Unknown
Launch site
Tyuratam Missile And Space Complex (TTMTR)
Object type
Payload
Rocket body
Debris
Shape & HBR
Unknown shape, 0.1 m
Radar Cross Section
Medium (>0.1 m² and <1 m²)

Expand to show TLE details & history
Last TLE update: 4 weeks ago

TLE from 4 weeks ago
0 FREGAT DEB
1 46095U 11037JE  26231.14301801  .00000533  00000-0  10808-1 0  9997
2 46095  51.0555 210.8226 1560349  17.5475 347.3499 10.04491966217464
Epoch: 2026-08-19T03:25Z
TLE epoch observation values (Epoch: 2026-08-19T03:25:56.756Z)
Latitude
0.00003°
Longitude
-168.16458°
Altitude
1,327.974 km
Speed
7.717 km/s
True Right ascension
14h 03m 17s
True Declination
0° 00' 00"
Sunlit
Object was in daylight at epoch
Visualization orbit readout
Latitude
Unknown
Longitude
Unknown
Altitude
Unknown
Speed
Unknown
Apparent Right ascension
Unknown
Apparent Declination
Unknown
Sunlit
N/A
Visualization observer readout
Local Sidereal Time
08:02:45
Azimuth
Unknown
Elevation
Unknown
Doppler factor
Unknown
Orbital elements
Apogee altitude
4,111.595 km
Perigee altitude
1,279.909 km
Semi-major axis
9,073.889 km
Eccentricity
0.15603
Inclination
51.0555°
RAAN
210.8226°
Arg. of periapsis
17.5475°
True anomaly
342.53059°
Mean anomaly
347.3499°
Eccentric anomaly
345.04241°
Mean motion
2.51104 °/min
Orbital period
143.37 mins
BSTAR
0.010808
Loading maneuver chart data...
Computing Atmospheric mass density...
Loading historical data...
Loading historical data...
Loading historical data...
Loading historical data...
Loading historical data...
Loading historical data...
Loading historical data...

Documentation

Showing up to 5 results
|